Thayer, KS

1:39 PM CST on January 18, 2017 (GMT -0600)
Tri-City

Weather History for KPPF - February, 2014

Change the Weather History Date:

Sunday, February 23, 2014

  Actual Average Record
Temperature  
Mean Temperature 37 °F -  
Max Temperature 46 °F 50 °F 73 °F (1982)
Min Temperature 28 °F 31 °F 9 °F (1989)
Degree Days  
Heating Degree Days 28    
Moisture  
Dew Point 17 °F    
Average Humidity 48    
Maximum Humidity 70    
Minimum Humidity 28    
Precipitation  
Precipitation 0.00 in - - ()
Sea Level Pressure  
Sea Level Pressure 30.19 in    
Wind  
Wind Speed 10 mph (NNE)    
Max Wind Speed 15 mph    
Max Gust Speed 26 mph    
Visibility 10 miles    
Events Snow    
Averages and records for this station are not official NWS values.
T = Trace of Precipitation, MM = Missing Value Source: NWS Daily Summary

Daily Weather History Graph

Daily Weather History Graph

Search for Another Location

Airport or City:

Trip Planner

Search our weather history database for the weather conditions in past years. The results will help you decide how hot, cold, wet, or windy it might be!

Date:

Astronomy

Feb. 23, 2014 Rise Set
Actual Time 7:01 AM CST 6:10 PM CST
Civil Twilight 6:34 AM CST 6:36 PM CST
Nautical Twilight 6:04 AM CST 7:06 PM CST
Astronomical Twilight 5:34 AM CST 7:36 PM CST
Moon 1:56 AM CST (2/23) 12:17 PM CST (2/23)
Length of Visible Light 12h 01m
Length of Day
11h 08m
Last Quarter, 38% of the Moon is Illuminated
Feb 23
Last Quarter
Mar 1
New
Mar 8
First Quarter
Mar 16
Full
Mar 23
Last Quarter

Hourly Weather History & Observations

Time (CST) Temp. Windchill Dew Point Humidity Pressure Visibility Wind Dir Wind Speed Gust Speed Precip Events Conditions
12:52 AM 37.0 °F 31.6 °F 28.0 °F 70% 29.99 in 10.0 mi NNE 6.9 mph 17.3 mph N/A   Clear
1:52 AM 36.0 °F 29.0 °F 26.1 °F 67% 30.04 in 10.0 mi North 9.2 mph 17.3 mph N/A   Partly Cloudy
2:52 AM 35.1 °F 25.9 °F 24.1 °F 64% 30.03 in 9.0 mi NNE 13.8 mph 20.7 mph 0.00 in Snow Light Snow
3:52 AM 33.1 °F 23.9 °F 23.0 °F 66% 30.05 in 10.0 mi NNE 12.7 mph 21.9 mph 0.00 in   Clear
4:52 AM 32.0 °F 21.6 °F 21.0 °F 64% 30.08 in 10.0 mi NNE 15.0 mph 26.5 mph 0.00 in   Clear
5:52 AM 30.9 °F 21.7 °F 18.0 °F 59% 30.10 in 10.0 mi NE 11.5 mph 24.2 mph N/A   Clear
6:52 AM 30.0 °F 20.5 °F 12.0 °F 47% 30.14 in 10.0 mi NNE 11.5 mph 21.9 mph 0.00 in   Clear
7:52 AM 30.0 °F 20.5 °F 10.9 °F 45% 30.14 in 10.0 mi NE 11.5 mph 24.2 mph N/A   Clear
8:52 AM 34.0 °F 25.0 °F 10.0 °F 37% 30.19 in 10.0 mi NE 12.7 mph 23.0 mph N/A   Clear
9:52 AM 37.9 °F 31.5 °F 10.9 °F 33% 30.20 in 10.0 mi NE 9.2 mph 21.9 mph N/A   Clear
10:52 AM 39.0 °F 31.0 °F 12.0 °F 33% 30.22 in 10.0 mi NE 13.8 mph 21.9 mph N/A   Clear
11:52 AM 44.1 °F 39.0 °F 12.9 °F 28% 30.23 in 10.0 mi NE 9.2 mph 18.4 mph N/A   Clear
12:52 PM 45.0 °F 39.3 °F 14.0 °F 29% 30.23 in 10.0 mi NNE 11.5 mph 23.0 mph N/A   Clear
1:52 PM 46.9 °F - 17.1 °F 30% 30.22 in 10.0 mi North 15.0 mph 24.2 mph N/A   Clear
2:52 PM 46.9 °F - 19.9 °F 34% 30.22 in 10.0 mi NNE 11.5 mph 20.7 mph N/A   Clear
3:52 PM 46.9 °F - 21.0 °F 36% 30.22 in 10.0 mi NE 11.5 mph 21.9 mph N/A   Clear
4:52 PM 46.0 °F 41.9 °F 21.9 °F 39% 30.23 in 10.0 mi NNE 8.1 mph - N/A   Clear
5:52 PM 41.0 °F 35.8 °F 19.9 °F 43% 30.26 in 10.0 mi NE 8.1 mph 17.3 mph N/A   Clear
6:52 PM 36.0 °F 33.3 °F 18.0 °F 48% 30.29 in 10.0 mi NNE 3.5 mph - N/A   Clear
7:52 PM 33.1 °F 30.0 °F 16.0 °F 50% 30.30 in 10.0 mi NNE 3.5 mph - N/A   Clear
8:52 PM 32.0 °F 26.4 °F 15.1 °F 50% 30.31 in 10.0 mi NNE 5.8 mph - N/A   Clear
9:52 PM 30.9 °F 25.2 °F 15.1 °F 52% 30.33 in 10.0 mi NNE 5.8 mph - N/A   Clear
10:52 PM 28.9 °F 22.8 °F 16.0 °F 58% 30.33 in 10.0 mi Variable 5.8 mph - N/A   Clear
11:52 PM 28.0 °F 20.0 °F 16.0 °F 61% 30.32 in 10.0 mi NE 8.1 mph - N/A   Clear